User: anonymous   Login
Location: Oshawa
(43.9000°N, 78.8670°W)
Time: 01:02:18
(UTC-04:00)
Language:

Hubble Space Telescope - Orbit

View from above orbital plane
View from above orbital plane
View from above satellite
View from above satellite

Ground track
Ground track

The orbit data is extracted from the following two-line orbital elements,

1 20580U 90037B   15110.51623275  .00003527  00000-0  21695-3 0  9996
2 20580 028.4693 174.3731 0002765 344.3088 156.2203 15.07221371171103
Epoch (UTC): 20 April 2015 12:23:22
Eccentricity: 0.0002765
inclination: 28.4693°
perigee height: 543 km
apogee height: 546 km
right ascension of ascending node: 174.3731°
argument of perigee: 344.3088°
revolutions per day: 15.07221371
mean anomaly at epoch: 156.2203°
orbit number at epoch: 17110

The dashed part of the orbit path shows where the satellite is in the earth's shadow,  

DLR